Terminal Aerodrome Forecast
Issued by NWS Omaha/Valley, NE

Home | Current Version | Previous Version | Graphics & Text | Print | Product List | Glossary On
Versions: 1 2 3 4 5 6 7 8 9 10 11 12 13 14 15 16 17 18 19 20 21 22 23 24 25 26 27 28 29 30 31 32
000
FTUS43 KOAX 140520
TAFOFK
TAF
KOFK 140520Z 1406/1506 20005KT P6SM SKC
     FM141700 15008KT P6SM BKN150
     FM142200 13006KT P6SM BKN040 PROB30 1501/1505 09005KT -SHRA=

USA.gov is the U.S. government's official web portal to all federal, state and local government web resources and services.